Location: Stoke Bliss
(52.2667°N, 2.5167°W)
Time: 12:58:15
(UTC+00:00)

Cosmos 1666 - Pass Details

Date: 03 March 2021
Orbit: 497 x 518 km, 82.5° (Epoch: 13 April)

Event Time Altitude Azimuth Distance (km) Brightness Sun altitude
Rises 20:04:43 0° 196° (SSW) 2,576 6.2 -20.7°
Reaches altitude 10° 20:06:50 10° 200° (SSW) 1,699 5.3 -21.0°
Maximum altitude 20:10:31 65° 282° (WNW) 553 3.0 -21.5°
Drops below altitude 10° 20:14:16 10° 6° (N) 1,721 5.5 -22.1°
Sets 20:16:26 0° 9° (N) 2,613 6.4 -22.4°
